sat.trackr.live / text

‹ back to catalog

STARLINK-2088

NORAD 47371 · 2021-005Y

PAYLOAD ACTIVE UNKNOWN

§ Identity

Operator
Country
US
Launch date
2021-01-20
Launch site
AFETR
Launch vehicle
Mass (kg)
RCS (m²)

Purposes: comms

External: N2YO · Heavens-Above · Gunter

§ Orbital elements

Epoch: 2026-09-19T22:15:31.730976Z

Period
94.01 min
Inclination
53.1596°
Eccentricity
0.0001366
Mean motion
15.31696762 rev/d
Perigee alt
469.8 km
Apogee alt
471.7 km
Semi-major
6,848.9 km
B*
3.2306e-5
RAAN
242.4007°
Arg perigee
92.6346°
Mean anomaly
267.4812°
Rev number
31,273

§ Raw data

STARLINK-20881 47371U 21005Y   26262.92745059  .00000637  00000+0  32306-4 0  99922 47371  53.1596 242.4007 0001366  92.6346 267.4812 15.31696762312730

JSON: /api/v1/satellites/47371 · /tle

For live sub-satellite position, see the globe view (requires WebGL).

§ Visibility from observer

Set your observer location to see the next 7 days of passes ≥ 10°. The values pass through the URL so the page stays shareable.

No JS? Fill the form by hand. The geolocation button needs JavaScript.